Location: Sternwarte Stuttgart
(48.7670°N, 9.1830°E)
Time: 00:39:46
(UTC+01:00)

ERBS - Pass Details

Date: 24 January 2019
Orbit: 418 x 432 km, 57.0° (Epoch: 16 February)

Event Time Altitude Azimuth Distance (km) Brightness Sun altitude
Exits shadow 06:33:30 18° 335° (NNW) 1,127 4.1 -14.7°
Maximum altitude 06:34:27 20° 358° (N) 1,051 4.1 -14.5°
Drops below altitude 10° 06:37:00 10° 47° (NE) 1,505 5.5 -14.1°
Sets 06:39:29 0° 66° (ENE) 2,368 7.0 -13.7°
